TimeCST,TemperatureF,Dew PointF,Humidity,Sea Level PressureIn,VisibilityMPH,Wind Direction,Wind SpeedMPH,Gust SpeedMPH,PrecipitationIn,Events,Conditions,WindDirDegrees,DateUTC
12:15 AM,28.4,23.0,80,30.22,10.0,SE,13.8,-,N/A,,Clear,130,2013-02-01 06:15:00
12:35 AM,28.4,23.0,80,30.22,10.0,SE,13.8,-,N/A,,Clear,130,2013-02-01 06:35:00
12:55 AM,26.6,21.2,80,30.22,10.0,SE,12.7,-,N/A,,Clear,130,2013-02-01 06:55:00
1:15 AM,26.6,21.2,80,30.22,10.0,SE,12.7,-,N/A,,Clear,130,2013-02-01 07:15:00
1:35 AM,26.6,21.2,80,30.23,10.0,SE,11.5,-,N/A,,Clear,130,2013-02-01 07:35:00
1:55 AM,24.8,21.2,86,30.23,10.0,SE,9.2,-,N/A,,Clear,140,2013-02-01 07:55:00
2:15 AM,23.0,21.2,93,30.25,10.0,Calm,Calm,-,N/A,,Clear,0,2013-02-01 08:15:00
2:35 AM,24.8,21.2,86,30.24,10.0,Calm,Calm,-,N/A,,Clear,0,2013-02-01 08:35:00
2:55 AM,23.0,21.2,93,30.24,10.0,ESE,3.5,-,N/A,,Clear,120,2013-02-01 08:55:00
3:15 AM,23.0,21.2,93,30.23,10.0,East,5.8,-,N/A,,Clear,100,2013-02-01 09:15:00
3:35 AM,21.2,19.4,93,30.24,10.0,East,6.9,-,N/A,,Clear,100,2013-02-01 09:35:00
3:55 AM,21.2,19.4,93,30.22,10.0,SE,6.9,-,N/A,,Clear,130,2013-02-01 09:55:00
4:15 AM,19.4,17.6,93,30.22,10.0,SE,4.6,-,N/A,,Clear,140,2013-02-01 10:15:00
4:35 AM,19.4,17.6,93,30.23,7.0,East,3.5,-,N/A,,Clear,100,2013-02-01 10:35:00
4:55 AM,17.6,17.6,100,30.22,7.0,SSE,8.1,-,N/A,,Clear,150,2013-02-01 10:55:00
5:15 AM,17.6,15.8,93,30.21,7.0,ESE,5.8,-,N/A,,Clear,110,2013-02-01 11:15:00
5:35 AM,17.6,15.8,93,30.21,7.0,SSW,4.6,-,N/A,,Clear,210,2013-02-01 11:35:00
5:55 AM,19.4,17.6,93,30.20,7.0,Calm,Calm,-,N/A,,Clear,0,2013-02-01 11:55:00
6:15 AM,17.6,15.8,93,30.20,7.0,South,10.4,-,N/A,,Clear,180,2013-02-01 12:15:00
6:35 AM,21.2,19.4,93,30.19,10.0,South,8.1,-,N/A,,Clear,170,2013-02-01 12:35:00
6:55 AM,23.0,19.4,86,30.18,10.0,SSE,8.1,-,N/A,,Clear,160,2013-02-01 12:55:00
7:15 AM,21.2,19.4,93,30.18,10.0,SSE,8.1,-,N/A,,Clear,150,2013-02-01 13:15:00
7:35 AM,21.2,17.6,86,30.18,10.0,SSE,6.9,-,N/A,,Clear,160,2013-02-01 13:35:00
7:55 AM,21.2,19.4,93,30.17,10.0,SSE,6.9,-,N/A,,Clear,150,2013-02-01 13:55:00
8:15 AM,21.2,17.6,86,30.18,10.0,SE,5.8,-,N/A,,Clear,130,2013-02-01 14:15:00
8:35 AM,23.0,19.4,86,30.17,10.0,SSE,4.6,-,N/A,,Clear,150,2013-02-01 14:35:00
8:55 AM,24.8,23.0,93,30.17,10.0,SSE,5.8,-,N/A,,Clear,150,2013-02-01 14:55:00
9:15 AM,26.6,23.0,86,30.17,10.0,SSE,6.9,-,N/A,,Clear,160,2013-02-01 15:15:00
9:35 AM,28.4,24.8,86,30.17,10.0,South,10.4,-,N/A,,Clear,180,2013-02-01 15:35:00
9:55 AM,30.2,24.8,80,30.18,10.0,South,11.5,-,N/A,,Clear,180,2013-02-01 15:55:00
10:15 AM,32.0,24.8,75,30.17,10.0,South,10.4,-,N/A,,Clear,190,2013-02-01 16:15:00
10:35 AM,32.0,24.8,75,30.17,10.0,South,10.4,-,N/A,,Clear,190,2013-02-01 16:35:00
10:55 AM,32.0,24.8,75,30.16,10.0,South,11.5,-,N/A,,Clear,190,2013-02-01 16:55:00
11:15 AM,33.8,26.6,75,30.16,10.0,SSW,10.4,-,N/A,,Clear,200,2013-02-01 17:15:00
11:55 AM,37.4,26.6,65,30.14,10.0,SSW,11.5,-,N/A,,Clear,200,2013-02-01 17:55:00
12:15 PM,39.2,26.6,61,30.13,10.0,SSW,9.2,17.3,N/A,,Clear,200,2013-02-01 18:15:00
12:35 PM,41.0,26.6,57,30.12,10.0,SSW,13.8,17.3,N/A,,Clear,200,2013-02-01 18:35:00
12:55 PM,42.8,26.6,53,30.12,10.0,SSW,11.5,-,N/A,,Clear,200,2013-02-01 18:55:00
1:15 PM,44.6,26.6,49,30.11,10.0,SW,9.2,16.1,N/A,,Clear,230,2013-02-01 19:15:00
1:35 PM,46.4,26.6,46,30.10,10.0,SW,11.5,-,N/A,,Clear,220,2013-02-01 19:35:00
1:55 PM,50.0,24.8,37,30.08,10.0,SW,11.5,16.1,N/A,,Clear,230,2013-02-01 19:55:00
2:15 PM,50.0,23.0,35,30.07,10.0,SW,11.5,-,N/A,,Clear,230,2013-02-01 20:15:00
2:35 PM,51.8,21.2,30,30.05,10.0,SW,9.2,-,N/A,,Clear,220,2013-02-01 20:35:00
2:55 PM,53.6,19.4,26,30.04,10.0,SW,9.2,-,N/A,,Clear,230,2013-02-01 20:55:00
3:15 PM,53.6,21.2,28,30.03,10.0,SW,5.8,-,N/A,,Clear,230,2013-02-01 21:15:00
3:35 PM,53.6,19.4,26,30.02,10.0,SW,6.9,-,N/A,,Clear,230,2013-02-01 21:35:00
3:55 PM,53.6,17.6,24,30.02,10.0,SW,3.5,-,N/A,,Clear,220,2013-02-01 21:55:00
4:15 PM,53.6,17.6,24,30.02,10.0,SW,4.6,-,N/A,,Clear,230,2013-02-01 22:15:00
4:35 PM,55.4,14.0,20,30.02,10.0,SSW,3.5,-,N/A,,Clear,210,2013-02-01 22:35:00
4:55 PM,55.4,15.8,21,30.02,10.0,SW,4.6,-,N/A,,Clear,230,2013-02-01 22:55:00
5:15 PM,53.6,14.0,21,30.02,10.0,SW,5.8,-,N/A,,Clear,220,2013-02-01 23:15:00
5:35 PM,53.6,14.0,21,30.02,10.0,SW,4.6,-,N/A,,Clear,220,2013-02-01 23:35:00
5:55 PM,51.8,15.8,24,30.02,10.0,SW,5.8,-,N/A,,Clear,220,2013-02-01 23:55:00
6:15 PM,46.4,17.6,32,30.02,10.0,SSW,5.8,-,N/A,,Clear,210,2013-02-02 00:15:00
6:35 PM,46.4,19.4,34,30.03,10.0,SW,5.8,-,N/A,,Clear,230,2013-02-02 00:35:00
6:55 PM,44.6,19.4,37,30.03,10.0,WSW,3.5,-,N/A,,Clear,250,2013-02-02 00:55:00
7:15 PM,44.6,19.4,37,30.05,10.0,Calm,Calm,-,N/A,,Clear,0,2013-02-02 01:15:00
7:55 PM,35.6,17.6,48,30.07,10.0,North,5.8,-,N/A,,Clear,350,2013-02-02 01:55:00
8:15 PM,37.4,15.8,41,30.07,10.0,North,4.6,-,N/A,,Clear,10,2013-02-02 02:15:00
8:35 PM,33.8,17.6,52,30.08,10.0,NE,9.2,-,N/A,,Clear,40,2013-02-02 02:35:00
8:55 PM,35.6,17.6,48,30.08,10.0,NE,6.9,-,N/A,,Clear,40,2013-02-02 02:55:00
9:15 PM,32.0,17.6,55,30.10,10.0,SE,4.6,-,N/A,,Clear,140,2013-02-02 03:15:00
9:35 PM,33.8,21.2,60,30.10,10.0,Calm,Calm,-,N/A,,Clear,0,2013-02-02 03:35:00
9:55 PM,33.8,21.2,60,30.11,10.0,Calm,Calm,-,N/A,,Clear,0,2013-02-02 03:55:00
10:15 PM,32.0,19.4,60,30.12,10.0,Calm,Calm,-,N/A,,Clear,0,2013-02-02 04:15:00
10:35 PM,30.2,17.6,60,30.13,10.0,Calm,Calm,-,N/A,,Clear,0,2013-02-02 04:35:00
10:55 PM,28.4,15.8,59,30.14,10.0,NNW,4.6,-,N/A,,Clear,330,2013-02-02 04:55:00
11:15 PM,28.4,17.6,64,30.14,10.0,NW,3.5,-,N/A,,Clear,320,2013-02-02 05:15:00
11:55 PM,30.2,19.4,64,30.15,10.0,NW,5.8,-,N/A,,Clear,320,2013-02-02 05:55:00